Hourly Weather Roundup
Issued by NWS Central Illinois

Home | Current Version | Previous Version | Text Only | Print | Product List | Glossary On
Versions: 1 2 3 4 5 6 7 8 9 10 11 12 13 14 15 16 17 18 19 20 21 22 23 24 25 26 27 28 29 30 31 32 33 34 35 36 37 38 39 40 41 42 43 44 45 46 47 48 49 50
000
NZUS43 KILX 282110
HWRILX

AREA WEATHER ROUNDUP
NATIONAL WEATHER SERVICE, LINCOLN IL
300 PM CST FRI NOV 28 2014


CITY           SKY/WX    TMP DP  RH WIND       PRES   REMARKS
BLOOMINGTON    MOSUNNY   36  31  82 S17       29.97F WCI  26
CHAMPAIGN      MOSUNNY   37  30  75 S20       30.02F WCI  27
DECATUR        MOSUNNY   38  30  73 S18       30.01F WCI  28
FLORA          SUNNY     42  32  67 S18       30.07F WCI  34
GALESBURG      PTSUNNY   36  31  81 SE5       29.91S WCI  32
JACKSONVILLE   MOSUNNY   43  34  71 SE9       29.93F
LACON          MOSUNNY   36  29  75 S10       29.95S WCI  28
LAWRENCEVILLE  SUNNY     41  31  67 S22       30.11F WCI  31
LITCHFIELD     SUNNY     40  32  72 S20       29.97F WCI  31
$$


CITY           SKY/WX    TMP DP  RH WIND       PRES   REMARKS
LINCOLN        PTSUNNY   39  32  76 S16G22    29.99F WCI  30
MACOMB         PTSUNNY   38  32  80 S14       29.92F WCI  29
MATTOON        SUNNY     38  29  70 S17G26    30.03F WCI  28
MT CARMEL AP   SUNNY     43  32  65 S18       30.10F WCI  34
OLNEY-NOBLE AP SUNNY     41  32  70 S15G22    30.08F WCI  33
PARIS          MOSUNNY   37  31  77 S18       30.07S WCI  27
PEORIA         MOSUNNY   38  29  70 S13G24    29.94F WCI  30
PONTIAC        PTSUNNY   37  32  81 S16       29.98F WCI  28
RANTOUL        PTSUNNY   39  32  75 S17       30.02F WCI  30
ROBINSON       SUNNY     40  30  67 S16       30.11F WCI  32
SPRINGFIELD    MOSUNNY   39  31  72 S15       29.97F WCI  31
TAYLORVILLE    SUNNY     37  32  81 S21G28    29.99F WCI  27
$$

...REGIONAL REPORTS...


CITY           SKY/WX    TMP DP  RH WIND       PRES   REMARKS
CHICAGO O`HARE CLOUDY    30  22  72 S15       29.99F WCI  19
KANKAKEE       CLOUDY    33  27  77 SE13      30.01F WCI  24
MOLINE         PTSUNNY   35  27  72 SE6       29.91F WCI  30
MOUNT VERNON   SUNNY     45  32  61 S14       30.07F
PITTSFIELD     MOSUNNY   48  37  67 E6        29.91F
QUINCY         MOSUNNY   48  33  56 S8        29.89F
ROCKFORD       CLOUDY    31  24  75 S9        29.97F WCI  23
$$


CITY           SKY/WX    TMP DP  RH WIND       PRES   REMARKS
BURLINGTON     PTSUNNY   40  31  70 S9        29.88F WCI  34
CEDAR RAPIDS   MOSUNNY   30  25  81 E8        29.87F WCI  22
DES MOINES     MOSUNNY   42  30  62 S13       29.79F
KIRKSVILLE     PTSUNNY   51  34  52 S10       29.84F
OTTUMWA        MOSUNNY   40  29  64 SE9       29.83F WCI  34
ST LOUIS       PTSUNNY   51  33  50 S12       29.96F
$$


CITY           SKY/WX    TMP DP  RH WIND       PRES   REMARKS
TERRE HAUTE    FAIR      38  27  64 S13       30.09F WCI  30
EVANSVILLE     SUNNY     44  28  53 S10G20    30.15F
INDIANAPOLIS   PTSUNNY   33  21  61 SE13      30.11F WCI  24
LAFAYETTE      CLOUDY    33  22  63 S13       30.09F WCI  24
MADISON        CLOUDY    26  18  71 S9        29.95F WCI  17
MILWAUKEE      PTSUNNY   29  20  69 S9        29.99S WCI  20
$$





USA.gov is the U.S. government's official web portal to all federal, state and local government web resources and services.